<?xml version="1.0"?>
<gpx xmlns="http://www.topografix.com/GPX/1/1" xmlns:xsi="http://www.w3.org/2001/XMLSchema-instance" version="1.1" creator="GPX RubyGem 1.0.0 -- http://dougfales.github.io/gpx/" xsi:schemaLocation="http://www.topografix.com/GPX/1/1 http://www.topografix.com/GPX/1/1/gpx.xsd">
  <metadata>
    <name/>
    <time>2026-05-10T10:47:32+00:00</time>
    <bound minlat="90.0" minlon="180.0" maxlat="-90.0" maxlon="-180.0"/>
  </metadata>
  <trk>
    <name/>
    <trkseg>
      <trkpt lat="44.82726" lon="5.60502">
        <time>1970-01-01T00:00:00+00:00</time>
        <ele>830.0</ele>
      </trkpt>
      <trkpt lat="44.827304" lon="5.605287">
        <time>1970-01-01T00:00:00+00:00</time>
        <ele>830.0</ele>
      </trkpt>
      <trkpt lat="44.827467" lon="5.605286">
        <time>1970-01-01T00:00:00+00:00</time>
        <ele>830.0</ele>
      </trkpt>
      <trkpt lat="44.82773" lon="5.605017">
        <time>1970-01-01T00:00:00+00:00</time>
        <ele>830.0</ele>
      </trkpt>
      <trkpt lat="44.828106" lon="5.604845">
        <time>1970-01-01T00:00:00+00:00</time>
        <ele>832.0</ele>
      </trkpt>
      <trkpt lat="44.82814" lon="5.603584">
        <time>1970-01-01T00:00:00+00:00</time>
        <ele>836.0</ele>
      </trkpt>
      <trkpt lat="44.82801" lon="5.603087">
        <time>1970-01-01T00:00:00+00:00</time>
        <ele>838.0</ele>
      </trkpt>
      <trkpt lat="44.828008" lon="5.602584">
        <time>1970-01-01T00:00:00+00:00</time>
        <ele>848.0</ele>
      </trkpt>
      <trkpt lat="44.828088" lon="5.602073">
        <time>1970-01-01T00:00:00+00:00</time>
        <ele>853.0</ele>
      </trkpt>
      <trkpt lat="44.828077" lon="5.601441">
        <time>1970-01-01T00:00:00+00:00</time>
        <ele>857.0</ele>
      </trkpt>
      <trkpt lat="44.828164" lon="5.600342">
        <time>1970-01-01T00:00:00+00:00</time>
        <ele>863.0</ele>
      </trkpt>
      <trkpt lat="44.828112" lon="5.599563">
        <time>1970-01-01T00:00:00+00:00</time>
        <ele>866.0</ele>
      </trkpt>
      <trkpt lat="44.828735" lon="5.600674">
        <time>1970-01-01T00:00:00+00:00</time>
        <ele>857.0</ele>
      </trkpt>
      <trkpt lat="44.828954" lon="5.59979">
        <time>1970-01-01T00:00:00+00:00</time>
        <ele>858.0</ele>
      </trkpt>
      <trkpt lat="44.829508" lon="5.599384">
        <time>1970-01-01T00:00:00+00:00</time>
        <ele>855.0</ele>
      </trkpt>
      <trkpt lat="44.829513" lon="5.599273">
        <time>1970-01-01T00:00:00+00:00</time>
        <ele>855.0</ele>
      </trkpt>
      <trkpt lat="44.829381" lon="5.598914">
        <time>1970-01-01T00:00:00+00:00</time>
        <ele>856.0</ele>
      </trkpt>
      <trkpt lat="44.829394" lon="5.598607">
        <time>1970-01-01T00:00:00+00:00</time>
        <ele>857.0</ele>
      </trkpt>
      <trkpt lat="44.829778" lon="5.597388">
        <time>1970-01-01T00:00:00+00:00</time>
        <ele>862.0</ele>
      </trkpt>
      <trkpt lat="44.8298" lon="5.597018">
        <time>1970-01-01T00:00:00+00:00</time>
        <ele>861.0</ele>
      </trkpt>
      <trkpt lat="44.82952" lon="5.59623">
        <time>1970-01-01T00:00:00+00:00</time>
        <ele>862.0</ele>
      </trkpt>
      <trkpt lat="44.829209" lon="5.595793">
        <time>1970-01-01T00:00:00+00:00</time>
        <ele>863.0</ele>
      </trkpt>
      <trkpt lat="44.829133" lon="5.594987">
        <time>1970-01-01T00:00:00+00:00</time>
        <ele>862.0</ele>
      </trkpt>
      <trkpt lat="44.828782" lon="5.594245">
        <time>1970-01-01T00:00:00+00:00</time>
        <ele>864.0</ele>
      </trkpt>
      <trkpt lat="44.828231" lon="5.593201">
        <time>1970-01-01T00:00:00+00:00</time>
        <ele>867.0</ele>
      </trkpt>
      <trkpt lat="44.827571" lon="5.592682">
        <time>1970-01-01T00:00:00+00:00</time>
        <ele>872.0</ele>
      </trkpt>
      <trkpt lat="44.827466" lon="5.592536">
        <time>1970-01-01T00:00:00+00:00</time>
        <ele>872.0</ele>
      </trkpt>
      <trkpt lat="44.827189" lon="5.591344">
        <time>1970-01-01T00:00:00+00:00</time>
        <ele>864.0</ele>
      </trkpt>
      <trkpt lat="44.826742" lon="5.590459">
        <time>1970-01-01T00:00:00+00:00</time>
        <ele>871.0</ele>
      </trkpt>
      <trkpt lat="44.825989" lon="5.588529">
        <time>1970-01-01T00:00:00+00:00</time>
        <ele>863.0</ele>
      </trkpt>
      <trkpt lat="44.825753" lon="5.588212">
        <time>1970-01-01T00:00:00+00:00</time>
        <ele>867.0</ele>
      </trkpt>
      <trkpt lat="44.825562" lon="5.588126">
        <time>1970-01-01T00:00:00+00:00</time>
        <ele>874.0</ele>
      </trkpt>
      <trkpt lat="44.825258" lon="5.588133">
        <time>1970-01-01T00:00:00+00:00</time>
        <ele>886.0</ele>
      </trkpt>
      <trkpt lat="44.825027" lon="5.588246">
        <time>1970-01-01T00:00:00+00:00</time>
        <ele>899.0</ele>
      </trkpt>
      <trkpt lat="44.824495" lon="5.587787">
        <time>1970-01-01T00:00:00+00:00</time>
        <ele>912.0</ele>
      </trkpt>
      <trkpt lat="44.824147" lon="5.586275">
        <time>1970-01-01T00:00:00+00:00</time>
        <ele>901.0</ele>
      </trkpt>
      <trkpt lat="44.823861" lon="5.585375">
        <time>1970-01-01T00:00:00+00:00</time>
        <ele>907.0</ele>
      </trkpt>
      <trkpt lat="44.823481" lon="5.584323">
        <time>1970-01-01T00:00:00+00:00</time>
        <ele>912.0</ele>
      </trkpt>
      <trkpt lat="44.823091" lon="5.583533">
        <time>1970-01-01T00:00:00+00:00</time>
        <ele>910.0</ele>
      </trkpt>
      <trkpt lat="44.822946" lon="5.58336">
        <time>1970-01-01T00:00:00+00:00</time>
        <ele>910.0</ele>
      </trkpt>
      <trkpt lat="44.822414" lon="5.583034">
        <time>1970-01-01T00:00:00+00:00</time>
        <ele>920.0</ele>
      </trkpt>
      <trkpt lat="44.821952" lon="5.582373">
        <time>1970-01-01T00:00:00+00:00</time>
        <ele>914.0</ele>
      </trkpt>
      <trkpt lat="44.820764" lon="5.58178">
        <time>1970-01-01T00:00:00+00:00</time>
        <ele>921.0</ele>
      </trkpt>
      <trkpt lat="44.82086" lon="5.581434">
        <time>1970-01-01T00:00:00+00:00</time>
        <ele>921.0</ele>
      </trkpt>
      <trkpt lat="44.820667" lon="5.581173">
        <time>1970-01-01T00:00:00+00:00</time>
        <ele>927.0</ele>
      </trkpt>
      <trkpt lat="44.820379" lon="5.580969">
        <time>1970-01-01T00:00:00+00:00</time>
        <ele>937.0</ele>
      </trkpt>
      <trkpt lat="44.820338" lon="5.580144">
        <time>1970-01-01T00:00:00+00:00</time>
        <ele>943.0</ele>
      </trkpt>
      <trkpt lat="44.820373" lon="5.57954">
        <time>1970-01-01T00:00:00+00:00</time>
        <ele>945.0</ele>
      </trkpt>
      <trkpt lat="44.820009" lon="5.578126">
        <time>1970-01-01T00:00:00+00:00</time>
        <ele>965.0</ele>
      </trkpt>
      <trkpt lat="44.819962" lon="5.577267">
        <time>1970-01-01T00:00:00+00:00</time>
        <ele>975.0</ele>
      </trkpt>
      <trkpt lat="44.819398" lon="5.575109">
        <time>1970-01-01T00:00:00+00:00</time>
        <ele>1012.0</ele>
      </trkpt>
      <trkpt lat="44.819317" lon="5.574162">
        <time>1970-01-01T00:00:00+00:00</time>
        <ele>1013.0</ele>
      </trkpt>
      <trkpt lat="44.819237" lon="5.573814">
        <time>1970-01-01T00:00:00+00:00</time>
        <ele>1014.0</ele>
      </trkpt>
      <trkpt lat="44.819416" lon="5.571221">
        <time>1970-01-01T00:00:00+00:00</time>
        <ele>1023.0</ele>
      </trkpt>
      <trkpt lat="44.819528" lon="5.570555">
        <time>1970-01-01T00:00:00+00:00</time>
        <ele>1020.0</ele>
      </trkpt>
      <trkpt lat="44.819518" lon="5.570175">
        <time>1970-01-01T00:00:00+00:00</time>
        <ele>1020.0</ele>
      </trkpt>
      <trkpt lat="44.819666" lon="5.569723">
        <time>1970-01-01T00:00:00+00:00</time>
        <ele>1019.0</ele>
      </trkpt>
      <trkpt lat="44.819751" lon="5.568913">
        <time>1970-01-01T00:00:00+00:00</time>
        <ele>1019.0</ele>
      </trkpt>
      <trkpt lat="44.81992" lon="5.565383">
        <time>1970-01-01T00:00:00+00:00</time>
        <ele>1016.0</ele>
      </trkpt>
      <trkpt lat="44.81998" lon="5.562046">
        <time>1970-01-01T00:00:00+00:00</time>
        <ele>1007.0</ele>
      </trkpt>
      <trkpt lat="44.819841" lon="5.560498">
        <time>1970-01-01T00:00:00+00:00</time>
        <ele>1009.0</ele>
      </trkpt>
      <trkpt lat="44.819986" lon="5.559523">
        <time>1970-01-01T00:00:00+00:00</time>
        <ele>1005.0</ele>
      </trkpt>
      <trkpt lat="44.819938" lon="5.558629">
        <time>1970-01-01T00:00:00+00:00</time>
        <ele>1008.0</ele>
      </trkpt>
      <trkpt lat="44.819804" lon="5.558237">
        <time>1970-01-01T00:00:00+00:00</time>
        <ele>1012.0</ele>
      </trkpt>
      <trkpt lat="44.819866" lon="5.557814">
        <time>1970-01-01T00:00:00+00:00</time>
        <ele>1012.0</ele>
      </trkpt>
      <trkpt lat="44.820448" lon="5.556154">
        <time>1970-01-01T00:00:00+00:00</time>
        <ele>1011.0</ele>
      </trkpt>
      <trkpt lat="44.820923" lon="5.555155">
        <time>1970-01-01T00:00:00+00:00</time>
        <ele>1015.0</ele>
      </trkpt>
      <trkpt lat="44.821217" lon="5.553947">
        <time>1970-01-01T00:00:00+00:00</time>
        <ele>1021.0</ele>
      </trkpt>
      <trkpt lat="44.821564" lon="5.553649">
        <time>1970-01-01T00:00:00+00:00</time>
        <ele>1021.0</ele>
      </trkpt>
      <trkpt lat="44.822702" lon="5.553252">
        <time>1970-01-01T00:00:00+00:00</time>
        <ele>1019.0</ele>
      </trkpt>
      <trkpt lat="44.82271" lon="5.553124">
        <time>1970-01-01T00:00:00+00:00</time>
        <ele>1019.0</ele>
      </trkpt>
      <trkpt lat="44.822359" lon="5.550832">
        <time>1970-01-01T00:00:00+00:00</time>
        <ele>1028.0</ele>
      </trkpt>
      <trkpt lat="44.822279" lon="5.549919">
        <time>1970-01-01T00:00:00+00:00</time>
        <ele>1033.0</ele>
      </trkpt>
      <trkpt lat="44.822321" lon="5.549593">
        <time>1970-01-01T00:00:00+00:00</time>
        <ele>1035.0</ele>
      </trkpt>
      <trkpt lat="44.822544" lon="5.548857">
        <time>1970-01-01T00:00:00+00:00</time>
        <ele>1042.0</ele>
      </trkpt>
      <trkpt lat="44.822472" lon="5.5484">
        <time>1970-01-01T00:00:00+00:00</time>
        <ele>1046.0</ele>
      </trkpt>
      <trkpt lat="44.822572" lon="5.54782">
        <time>1970-01-01T00:00:00+00:00</time>
        <ele>1052.0</ele>
      </trkpt>
      <trkpt lat="44.822492" lon="5.547515">
        <time>1970-01-01T00:00:00+00:00</time>
        <ele>1052.0</ele>
      </trkpt>
      <trkpt lat="44.822449" lon="5.54671">
        <time>1970-01-01T00:00:00+00:00</time>
        <ele>1053.0</ele>
      </trkpt>
      <trkpt lat="44.822589" lon="5.5455">
        <time>1970-01-01T00:00:00+00:00</time>
        <ele>1057.0</ele>
      </trkpt>
      <trkpt lat="44.822539" lon="5.544892">
        <time>1970-01-01T00:00:00+00:00</time>
        <ele>1059.0</ele>
      </trkpt>
      <trkpt lat="44.822401" lon="5.544513">
        <time>1970-01-01T00:00:00+00:00</time>
        <ele>1060.0</ele>
      </trkpt>
      <trkpt lat="44.821564" lon="5.543202">
        <time>1970-01-01T00:00:00+00:00</time>
        <ele>1061.0</ele>
      </trkpt>
      <trkpt lat="44.821592" lon="5.542469">
        <time>1970-01-01T00:00:00+00:00</time>
        <ele>1064.0</ele>
      </trkpt>
      <trkpt lat="44.82136" lon="5.54164">
        <time>1970-01-01T00:00:00+00:00</time>
        <ele>1067.0</ele>
      </trkpt>
      <trkpt lat="44.82115" lon="5.540421">
        <time>1970-01-01T00:00:00+00:00</time>
        <ele>1076.0</ele>
      </trkpt>
      <trkpt lat="44.820779" lon="5.539387">
        <time>1970-01-01T00:00:00+00:00</time>
        <ele>1079.0</ele>
      </trkpt>
      <trkpt lat="44.820338" lon="5.538536">
        <time>1970-01-01T00:00:00+00:00</time>
        <ele>1083.0</ele>
      </trkpt>
      <trkpt lat="44.819904" lon="5.537161">
        <time>1970-01-01T00:00:00+00:00</time>
        <ele>1089.0</ele>
      </trkpt>
      <trkpt lat="44.819061" lon="5.535014">
        <time>1970-01-01T00:00:00+00:00</time>
        <ele>1100.0</ele>
      </trkpt>
      <trkpt lat="44.818953" lon="5.534334">
        <time>1970-01-01T00:00:00+00:00</time>
        <ele>1108.0</ele>
      </trkpt>
      <trkpt lat="44.818773" lon="5.533815">
        <time>1970-01-01T00:00:00+00:00</time>
        <ele>1111.0</ele>
      </trkpt>
      <trkpt lat="44.818598" lon="5.533019">
        <time>1970-01-01T00:00:00+00:00</time>
        <ele>1114.0</ele>
      </trkpt>
      <trkpt lat="44.818579" lon="5.532604">
        <time>1970-01-01T00:00:00+00:00</time>
        <ele>1116.0</ele>
      </trkpt>
      <trkpt lat="44.818656" lon="5.531508">
        <time>1970-01-01T00:00:00+00:00</time>
        <ele>1124.0</ele>
      </trkpt>
      <trkpt lat="44.818783" lon="5.531208">
        <time>1970-01-01T00:00:00+00:00</time>
        <ele>1128.0</ele>
      </trkpt>
      <trkpt lat="44.818871" lon="5.530466">
        <time>1970-01-01T00:00:00+00:00</time>
        <ele>1130.0</ele>
      </trkpt>
      <trkpt lat="44.81906" lon="5.530121">
        <time>1970-01-01T00:00:00+00:00</time>
        <ele>1136.0</ele>
      </trkpt>
      <trkpt lat="44.81914" lon="5.52979">
        <time>1970-01-01T00:00:00+00:00</time>
        <ele>1139.0</ele>
      </trkpt>
      <trkpt lat="44.819188" lon="5.529054">
        <time>1970-01-01T00:00:00+00:00</time>
        <ele>1142.0</ele>
      </trkpt>
      <trkpt lat="44.819018" lon="5.528262">
        <time>1970-01-01T00:00:00+00:00</time>
        <ele>1146.0</ele>
      </trkpt>
      <trkpt lat="44.818953" lon="5.52802">
        <time>1970-01-01T00:00:00+00:00</time>
        <ele>1148.0</ele>
      </trkpt>
      <trkpt lat="44.818758" lon="5.527673">
        <time>1970-01-01T00:00:00+00:00</time>
        <ele>1150.0</ele>
      </trkpt>
      <trkpt lat="44.818422" lon="5.526304">
        <time>1970-01-01T00:00:00+00:00</time>
        <ele>1161.0</ele>
      </trkpt>
      <trkpt lat="44.818206" lon="5.526014">
        <time>1970-01-01T00:00:00+00:00</time>
        <ele>1165.0</ele>
      </trkpt>
      <trkpt lat="44.817698" lon="5.525536">
        <time>1970-01-01T00:00:00+00:00</time>
        <ele>1169.0</ele>
      </trkpt>
      <trkpt lat="44.817103" lon="5.524727">
        <time>1970-01-01T00:00:00+00:00</time>
        <ele>1171.0</ele>
      </trkpt>
      <trkpt lat="44.816704" lon="5.523748">
        <time>1970-01-01T00:00:00+00:00</time>
        <ele>1178.0</ele>
      </trkpt>
      <trkpt lat="44.816282" lon="5.522985">
        <time>1970-01-01T00:00:00+00:00</time>
        <ele>1187.0</ele>
      </trkpt>
      <trkpt lat="44.816197" lon="5.522619">
        <time>1970-01-01T00:00:00+00:00</time>
        <ele>1195.0</ele>
      </trkpt>
      <trkpt lat="44.816189" lon="5.522055">
        <time>1970-01-01T00:00:00+00:00</time>
        <ele>1203.0</ele>
      </trkpt>
      <trkpt lat="44.816125" lon="5.521858">
        <time>1970-01-01T00:00:00+00:00</time>
        <ele>1206.0</ele>
      </trkpt>
      <trkpt lat="44.815625" lon="5.521535">
        <time>1970-01-01T00:00:00+00:00</time>
        <ele>1214.0</ele>
      </trkpt>
      <trkpt lat="44.814937" lon="5.521488">
        <time>1970-01-01T00:00:00+00:00</time>
        <ele>1219.0</ele>
      </trkpt>
      <trkpt lat="44.814571" lon="5.521259">
        <time>1970-01-01T00:00:00+00:00</time>
        <ele>1229.0</ele>
      </trkpt>
      <trkpt lat="44.814557" lon="5.521166">
        <time>1970-01-01T00:00:00+00:00</time>
        <ele>1233.0</ele>
      </trkpt>
      <trkpt lat="44.814693" lon="5.520814">
        <time>1970-01-01T00:00:00+00:00</time>
        <ele>1247.0</ele>
      </trkpt>
      <trkpt lat="44.814631" lon="5.520657">
        <time>1970-01-01T00:00:00+00:00</time>
        <ele>1253.0</ele>
      </trkpt>
      <trkpt lat="44.813335" lon="5.519574">
        <time>1970-01-01T00:00:00+00:00</time>
        <ele>1277.0</ele>
      </trkpt>
      <trkpt lat="44.81321" lon="5.519412">
        <time>1970-01-01T00:00:00+00:00</time>
        <ele>1281.0</ele>
      </trkpt>
      <trkpt lat="44.81313" lon="5.51893">
        <time>1970-01-01T00:00:00+00:00</time>
        <ele>1297.0</ele>
      </trkpt>
      <trkpt lat="44.813282" lon="5.518543">
        <time>1970-01-01T00:00:00+00:00</time>
        <ele>1314.0</ele>
      </trkpt>
      <trkpt lat="44.813218" lon="5.518383">
        <time>1970-01-01T00:00:00+00:00</time>
        <ele>1317.0</ele>
      </trkpt>
      <trkpt lat="44.813258" lon="5.518281">
        <time>1970-01-01T00:00:00+00:00</time>
        <ele>1322.0</ele>
      </trkpt>
      <trkpt lat="44.813217" lon="5.518137">
        <time>1970-01-01T00:00:00+00:00</time>
        <ele>1325.0</ele>
      </trkpt>
      <trkpt lat="44.813318" lon="5.517627">
        <time>1970-01-01T00:00:00+00:00</time>
        <ele>1346.0</ele>
      </trkpt>
      <trkpt lat="44.81294" lon="5.517219">
        <time>1970-01-01T00:00:00+00:00</time>
        <ele>1349.0</ele>
      </trkpt>
      <trkpt lat="44.812925" lon="5.516966">
        <time>1970-01-01T00:00:00+00:00</time>
        <ele>1360.0</ele>
      </trkpt>
      <trkpt lat="44.812753" lon="5.51654">
        <time>1970-01-01T00:00:00+00:00</time>
        <ele>1374.0</ele>
      </trkpt>
      <trkpt lat="44.812633" lon="5.516383">
        <time>1970-01-01T00:00:00+00:00</time>
        <ele>1376.0</ele>
      </trkpt>
      <trkpt lat="44.812671" lon="5.516287">
        <time>1970-01-01T00:00:00+00:00</time>
        <ele>1382.0</ele>
      </trkpt>
      <trkpt lat="44.812617" lon="5.51622">
        <time>1970-01-01T00:00:00+00:00</time>
        <ele>1382.0</ele>
      </trkpt>
      <trkpt lat="44.81262" lon="5.516033">
        <time>1970-01-01T00:00:00+00:00</time>
        <ele>1389.0</ele>
      </trkpt>
      <trkpt lat="44.812686" lon="5.515986">
        <time>1970-01-01T00:00:00+00:00</time>
        <ele>1395.0</ele>
      </trkpt>
      <trkpt lat="44.812533" lon="5.515778">
        <time>1970-01-01T00:00:00+00:00</time>
        <ele>1399.0</ele>
      </trkpt>
      <trkpt lat="44.81261" lon="5.515684">
        <time>1970-01-01T00:00:00+00:00</time>
        <ele>1407.0</ele>
      </trkpt>
      <trkpt lat="44.812354" lon="5.515217">
        <time>1970-01-01T00:00:00+00:00</time>
        <ele>1420.0</ele>
      </trkpt>
      <trkpt lat="44.812181" lon="5.51502">
        <time>1970-01-01T00:00:00+00:00</time>
        <ele>1425.0</ele>
      </trkpt>
      <trkpt lat="44.812212" lon="5.514876">
        <time>1970-01-01T00:00:00+00:00</time>
        <ele>1433.0</ele>
      </trkpt>
      <trkpt lat="44.812049" lon="5.514834">
        <time>1970-01-01T00:00:00+00:00</time>
        <ele>1431.0</ele>
      </trkpt>
      <trkpt lat="44.811913" lon="5.51457">
        <time>1970-01-01T00:00:00+00:00</time>
        <ele>1442.0</ele>
      </trkpt>
      <trkpt lat="44.811627" lon="5.51424">
        <time>1970-01-01T00:00:00+00:00</time>
        <ele>1457.0</ele>
      </trkpt>
      <trkpt lat="44.811601" lon="5.514128">
        <time>1970-01-01T00:00:00+00:00</time>
        <ele>1463.0</ele>
      </trkpt>
      <trkpt lat="44.811464" lon="5.514053">
        <time>1970-01-01T00:00:00+00:00</time>
        <ele>1467.0</ele>
      </trkpt>
      <trkpt lat="44.811392" lon="5.513875">
        <time>1970-01-01T00:00:00+00:00</time>
        <ele>1478.0</ele>
      </trkpt>
      <trkpt lat="44.810974" lon="5.513785">
        <time>1970-01-01T00:00:00+00:00</time>
        <ele>1480.0</ele>
      </trkpt>
      <trkpt lat="44.810859" lon="5.513517">
        <time>1970-01-01T00:00:00+00:00</time>
        <ele>1493.0</ele>
      </trkpt>
      <trkpt lat="44.810949" lon="5.513465">
        <time>1970-01-01T00:00:00+00:00</time>
        <ele>1498.0</ele>
      </trkpt>
      <trkpt lat="44.810852" lon="5.513328">
        <time>1970-01-01T00:00:00+00:00</time>
        <ele>1503.0</ele>
      </trkpt>
      <trkpt lat="44.810349" lon="5.512989">
        <time>1970-01-01T00:00:00+00:00</time>
        <ele>1524.0</ele>
      </trkpt>
      <trkpt lat="44.810181" lon="5.512977">
        <time>1970-01-01T00:00:00+00:00</time>
        <ele>1531.0</ele>
      </trkpt>
      <trkpt lat="44.810232" lon="5.512833">
        <time>1970-01-01T00:00:00+00:00</time>
        <ele>1538.0</ele>
      </trkpt>
      <trkpt lat="44.810068" lon="5.512832">
        <time>1970-01-01T00:00:00+00:00</time>
        <ele>1544.0</ele>
      </trkpt>
      <trkpt lat="44.810176" lon="5.512579">
        <time>1970-01-01T00:00:00+00:00</time>
        <ele>1563.0</ele>
      </trkpt>
      <trkpt lat="44.809941" lon="5.512663">
        <time>1970-01-01T00:00:00+00:00</time>
        <ele>1560.0</ele>
      </trkpt>
      <trkpt lat="44.809832" lon="5.512818">
        <time>1970-01-01T00:00:00+00:00</time>
        <ele>1558.0</ele>
      </trkpt>
      <trkpt lat="44.809802" lon="5.512662">
        <time>1970-01-01T00:00:00+00:00</time>
        <ele>1564.0</ele>
      </trkpt>
      <trkpt lat="44.809697" lon="5.512517">
        <time>1970-01-01T00:00:00+00:00</time>
        <ele>1570.0</ele>
      </trkpt>
      <trkpt lat="44.809383" lon="5.512432">
        <time>1970-01-01T00:00:00+00:00</time>
        <ele>1581.0</ele>
      </trkpt>
      <trkpt lat="44.809136" lon="5.51225">
        <time>1970-01-01T00:00:00+00:00</time>
        <ele>1582.0</ele>
      </trkpt>
      <trkpt lat="44.80875" lon="5.512371">
        <time>1970-01-01T00:00:00+00:00</time>
        <ele>1584.0</ele>
      </trkpt>
      <trkpt lat="44.80846" lon="5.512355">
        <time>1970-01-01T00:00:00+00:00</time>
        <ele>1591.0</ele>
      </trkpt>
      <trkpt lat="44.808078" lon="5.512203">
        <time>1970-01-01T00:00:00+00:00</time>
        <ele>1602.0</ele>
      </trkpt>
      <trkpt lat="44.807165" lon="5.512184">
        <time>1970-01-01T00:00:00+00:00</time>
        <ele>1607.0</ele>
      </trkpt>
      <trkpt lat="44.806734" lon="5.512058">
        <time>1970-01-01T00:00:00+00:00</time>
        <ele>1610.0</ele>
      </trkpt>
      <trkpt lat="44.806236" lon="5.511739">
        <time>1970-01-01T00:00:00+00:00</time>
        <ele>1616.0</ele>
      </trkpt>
      <trkpt lat="44.806059" lon="5.511758">
        <time>1970-01-01T00:00:00+00:00</time>
        <ele>1620.0</ele>
      </trkpt>
      <trkpt lat="44.805921" lon="5.511619">
        <time>1970-01-01T00:00:00+00:00</time>
        <ele>1622.0</ele>
      </trkpt>
      <trkpt lat="44.805625" lon="5.511259">
        <time>1970-01-01T00:00:00+00:00</time>
        <ele>1628.0</ele>
      </trkpt>
      <trkpt lat="44.805405" lon="5.510683">
        <time>1970-01-01T00:00:00+00:00</time>
        <ele>1647.0</ele>
      </trkpt>
      <trkpt lat="44.80545" lon="5.511035">
        <time>1970-01-01T00:00:00+00:00</time>
        <ele>1637.0</ele>
      </trkpt>
      <trkpt lat="44.805397" lon="5.511552">
        <time>1970-01-01T00:00:00+00:00</time>
        <ele>1628.0</ele>
      </trkpt>
      <trkpt lat="44.805509" lon="5.512016">
        <time>1970-01-01T00:00:00+00:00</time>
        <ele>1623.0</ele>
      </trkpt>
      <trkpt lat="44.805056" lon="5.511931">
        <time>1970-01-01T00:00:00+00:00</time>
        <ele>1626.0</ele>
      </trkpt>
      <trkpt lat="44.804851" lon="5.511963">
        <time>1970-01-01T00:00:00+00:00</time>
        <ele>1632.0</ele>
      </trkpt>
      <trkpt lat="44.804864" lon="5.512711">
        <time>1970-01-01T00:00:00+00:00</time>
        <ele>1636.0</ele>
      </trkpt>
      <trkpt lat="44.804584" lon="5.513079">
        <time>1970-01-01T00:00:00+00:00</time>
        <ele>1642.0</ele>
      </trkpt>
      <trkpt lat="44.80467" lon="5.513579">
        <time>1970-01-01T00:00:00+00:00</time>
        <ele>1645.0</ele>
      </trkpt>
      <trkpt lat="44.80464" lon="5.513818">
        <time>1970-01-01T00:00:00+00:00</time>
        <ele>1651.0</ele>
      </trkpt>
      <trkpt lat="44.80391" lon="5.513898">
        <time>1970-01-01T00:00:00+00:00</time>
        <ele>1673.0</ele>
      </trkpt>
      <trkpt lat="44.803568" lon="5.51376">
        <time>1970-01-01T00:00:00+00:00</time>
        <ele>1679.0</ele>
      </trkpt>
      <trkpt lat="44.802876" lon="5.513862">
        <time>1970-01-01T00:00:00+00:00</time>
        <ele>1696.0</ele>
      </trkpt>
      <trkpt lat="44.802954" lon="5.514077">
        <time>1970-01-01T00:00:00+00:00</time>
        <ele>1700.0</ele>
      </trkpt>
      <trkpt lat="44.803308" lon="5.514551">
        <time>1970-01-01T00:00:00+00:00</time>
        <ele>1706.0</ele>
      </trkpt>
      <trkpt lat="44.803372" lon="5.514846">
        <time>1970-01-01T00:00:00+00:00</time>
        <ele>1712.0</ele>
      </trkpt>
      <trkpt lat="44.80349" lon="5.515046">
        <time>1970-01-01T00:00:00+00:00</time>
        <ele>1714.0</ele>
      </trkpt>
      <trkpt lat="44.803952" lon="5.516391">
        <time>1970-01-01T00:00:00+00:00</time>
        <ele>1737.0</ele>
      </trkpt>
      <trkpt lat="44.804068" lon="5.517135">
        <time>1970-01-01T00:00:00+00:00</time>
        <ele>1751.0</ele>
      </trkpt>
      <trkpt lat="44.804237" lon="5.517672">
        <time>1970-01-01T00:00:00+00:00</time>
        <ele>1755.0</ele>
      </trkpt>
      <trkpt lat="44.804274" lon="5.518114">
        <time>1970-01-01T00:00:00+00:00</time>
        <ele>1757.0</ele>
      </trkpt>
      <trkpt lat="44.804228" lon="5.51838">
        <time>1970-01-01T00:00:00+00:00</time>
        <ele>1757.0</ele>
      </trkpt>
      <trkpt lat="44.804022" lon="5.518582">
        <time>1970-01-01T00:00:00+00:00</time>
        <ele>1760.0</ele>
      </trkpt>
      <trkpt lat="44.803679" lon="5.518721">
        <time>1970-01-01T00:00:00+00:00</time>
        <ele>1766.0</ele>
      </trkpt>
      <trkpt lat="44.803316" lon="5.519024">
        <time>1970-01-01T00:00:00+00:00</time>
        <ele>1774.0</ele>
      </trkpt>
      <trkpt lat="44.802854" lon="5.51983">
        <time>1970-01-01T00:00:00+00:00</time>
        <ele>1781.0</ele>
      </trkpt>
      <trkpt lat="44.80268" lon="5.52003">
        <time>1970-01-01T00:00:00+00:00</time>
        <ele>1785.0</ele>
      </trkpt>
      <trkpt lat="44.802577" lon="5.520389">
        <time>1970-01-01T00:00:00+00:00</time>
        <ele>1784.0</ele>
      </trkpt>
      <trkpt lat="44.802464" lon="5.520491">
        <time>1970-01-01T00:00:00+00:00</time>
        <ele>1785.0</ele>
      </trkpt>
      <trkpt lat="44.801705" lon="5.520689">
        <time>1970-01-01T00:00:00+00:00</time>
        <ele>1787.0</ele>
      </trkpt>
      <trkpt lat="44.801273" lon="5.520701">
        <time>1970-01-01T00:00:00+00:00</time>
        <ele>1787.0</ele>
      </trkpt>
      <trkpt lat="44.800875" lon="5.520856">
        <time>1970-01-01T00:00:00+00:00</time>
        <ele>1790.0</ele>
      </trkpt>
      <trkpt lat="44.8005" lon="5.521156">
        <time>1970-01-01T00:00:00+00:00</time>
        <ele>1795.0</ele>
      </trkpt>
      <trkpt lat="44.800441" lon="5.521592">
        <time>1970-01-01T00:00:00+00:00</time>
        <ele>1794.0</ele>
      </trkpt>
      <trkpt lat="44.800084" lon="5.52221">
        <time>1970-01-01T00:00:00+00:00</time>
        <ele>1794.0</ele>
      </trkpt>
      <trkpt lat="44.799927" lon="5.52215">
        <time>1970-01-01T00:00:00+00:00</time>
        <ele>1797.0</ele>
      </trkpt>
      <trkpt lat="44.799394" lon="5.522232">
        <time>1970-01-01T00:00:00+00:00</time>
        <ele>1800.0</ele>
      </trkpt>
      <trkpt lat="44.799101" lon="5.522515">
        <time>1970-01-01T00:00:00+00:00</time>
        <ele>1800.0</ele>
      </trkpt>
      <trkpt lat="44.798799" lon="5.522668">
        <time>1970-01-01T00:00:00+00:00</time>
        <ele>1798.0</ele>
      </trkpt>
      <trkpt lat="44.798003" lon="5.523609">
        <time>1970-01-01T00:00:00+00:00</time>
        <ele>1798.0</ele>
      </trkpt>
      <trkpt lat="44.797793" lon="5.52389">
        <time>1970-01-01T00:00:00+00:00</time>
        <ele>1800.0</ele>
      </trkpt>
      <trkpt lat="44.797749" lon="5.524055">
        <time>1970-01-01T00:00:00+00:00</time>
        <ele>1801.0</ele>
      </trkpt>
      <trkpt lat="44.797502" lon="5.524082">
        <time>1970-01-01T00:00:00+00:00</time>
        <ele>1801.0</ele>
      </trkpt>
      <trkpt lat="44.797417" lon="5.524412">
        <time>1970-01-01T00:00:00+00:00</time>
        <ele>1802.0</ele>
      </trkpt>
      <trkpt lat="44.797081" lon="5.524899">
        <time>1970-01-01T00:00:00+00:00</time>
        <ele>1802.0</ele>
      </trkpt>
      <trkpt lat="44.796835" lon="5.525141">
        <time>1970-01-01T00:00:00+00:00</time>
        <ele>1805.0</ele>
      </trkpt>
      <trkpt lat="44.796653" lon="5.5257">
        <time>1970-01-01T00:00:00+00:00</time>
        <ele>1804.0</ele>
      </trkpt>
      <trkpt lat="44.79654" lon="5.526328">
        <time>1970-01-01T00:00:00+00:00</time>
        <ele>1807.0</ele>
      </trkpt>
      <trkpt lat="44.796478" lon="5.526403">
        <time>1970-01-01T00:00:00+00:00</time>
        <ele>1808.0</ele>
      </trkpt>
      <trkpt lat="44.796375" lon="5.526803">
        <time>1970-01-01T00:00:00+00:00</time>
        <ele>1812.0</ele>
      </trkpt>
      <trkpt lat="44.796202" lon="5.527108">
        <time>1970-01-01T00:00:00+00:00</time>
        <ele>1814.0</ele>
      </trkpt>
      <trkpt lat="44.795835" lon="5.528832">
        <time>1970-01-01T00:00:00+00:00</time>
        <ele>1815.0</ele>
      </trkpt>
      <trkpt lat="44.795992" lon="5.529914">
        <time>1970-01-01T00:00:00+00:00</time>
        <ele>1819.0</ele>
      </trkpt>
      <trkpt lat="44.795939" lon="5.530801">
        <time>1970-01-01T00:00:00+00:00</time>
        <ele>1821.0</ele>
      </trkpt>
      <trkpt lat="44.795963" lon="5.531477">
        <time>1970-01-01T00:00:00+00:00</time>
        <ele>1823.0</ele>
      </trkpt>
      <trkpt lat="44.79589" lon="5.531889">
        <time>1970-01-01T00:00:00+00:00</time>
        <ele>1825.0</ele>
      </trkpt>
      <trkpt lat="44.795984" lon="5.532907">
        <time>1970-01-01T00:00:00+00:00</time>
        <ele>1835.0</ele>
      </trkpt>
      <trkpt lat="44.79586" lon="5.533353">
        <time>1970-01-01T00:00:00+00:00</time>
        <ele>1841.0</ele>
      </trkpt>
      <trkpt lat="44.795651" lon="5.533659">
        <time>1970-01-01T00:00:00+00:00</time>
        <ele>1843.0</ele>
      </trkpt>
      <trkpt lat="44.795527" lon="5.534389">
        <time>1970-01-01T00:00:00+00:00</time>
        <ele>1840.0</ele>
      </trkpt>
      <trkpt lat="44.795448" lon="5.534535">
        <time>1970-01-01T00:00:00+00:00</time>
        <ele>1838.0</ele>
      </trkpt>
      <trkpt lat="44.795383" lon="5.535248">
        <time>1970-01-01T00:00:00+00:00</time>
        <ele>1836.0</ele>
      </trkpt>
      <trkpt lat="44.795453" lon="5.535432">
        <time>1970-01-01T00:00:00+00:00</time>
        <ele>1834.0</ele>
      </trkpt>
      <trkpt lat="44.795459" lon="5.535718">
        <time>1970-01-01T00:00:00+00:00</time>
        <ele>1831.0</ele>
      </trkpt>
      <trkpt lat="44.795054" lon="5.536177">
        <time>1970-01-01T00:00:00+00:00</time>
        <ele>1829.0</ele>
      </trkpt>
      <trkpt lat="44.79495" lon="5.536534">
        <time>1970-01-01T00:00:00+00:00</time>
        <ele>1827.0</ele>
      </trkpt>
      <trkpt lat="44.794934" lon="5.536893">
        <time>1970-01-01T00:00:00+00:00</time>
        <ele>1825.0</ele>
      </trkpt>
      <trkpt lat="44.795012" lon="5.537202">
        <time>1970-01-01T00:00:00+00:00</time>
        <ele>1825.0</ele>
      </trkpt>
      <trkpt lat="44.794959" lon="5.537884">
        <time>1970-01-01T00:00:00+00:00</time>
        <ele>1821.0</ele>
      </trkpt>
      <trkpt lat="44.794851" lon="5.538187">
        <time>1970-01-01T00:00:00+00:00</time>
        <ele>1819.0</ele>
      </trkpt>
      <trkpt lat="44.794857" lon="5.538934">
        <time>1970-01-01T00:00:00+00:00</time>
        <ele>1823.0</ele>
      </trkpt>
      <trkpt lat="44.794836" lon="5.539039">
        <time>1970-01-01T00:00:00+00:00</time>
        <ele>1823.0</ele>
      </trkpt>
      <trkpt lat="44.7945" lon="5.539536">
        <time>1970-01-01T00:00:00+00:00</time>
        <ele>1820.0</ele>
      </trkpt>
      <trkpt lat="44.794405" lon="5.539862">
        <time>1970-01-01T00:00:00+00:00</time>
        <ele>1817.0</ele>
      </trkpt>
      <trkpt lat="44.794413" lon="5.540337">
        <time>1970-01-01T00:00:00+00:00</time>
        <ele>1814.0</ele>
      </trkpt>
      <trkpt lat="44.794356" lon="5.540771">
        <time>1970-01-01T00:00:00+00:00</time>
        <ele>1814.0</ele>
      </trkpt>
      <trkpt lat="44.794116" lon="5.541734">
        <time>1970-01-01T00:00:00+00:00</time>
        <ele>1807.0</ele>
      </trkpt>
      <trkpt lat="44.794112" lon="5.542421">
        <time>1970-01-01T00:00:00+00:00</time>
        <ele>1800.0</ele>
      </trkpt>
      <trkpt lat="44.794192" lon="5.542552">
        <time>1970-01-01T00:00:00+00:00</time>
        <ele>1801.0</ele>
      </trkpt>
      <trkpt lat="44.794117" lon="5.542862">
        <time>1970-01-01T00:00:00+00:00</time>
        <ele>1801.0</ele>
      </trkpt>
      <trkpt lat="44.793715" lon="5.544022">
        <time>1970-01-01T00:00:00+00:00</time>
        <ele>1799.0</ele>
      </trkpt>
      <trkpt lat="44.793344" lon="5.544682">
        <time>1970-01-01T00:00:00+00:00</time>
        <ele>1800.0</ele>
      </trkpt>
      <trkpt lat="44.793012" lon="5.544958">
        <time>1970-01-01T00:00:00+00:00</time>
        <ele>1793.0</ele>
      </trkpt>
      <trkpt lat="44.792745" lon="5.5455">
        <time>1970-01-01T00:00:00+00:00</time>
        <ele>1783.0</ele>
      </trkpt>
      <trkpt lat="44.792188" lon="5.546798">
        <time>1970-01-01T00:00:00+00:00</time>
        <ele>1767.0</ele>
      </trkpt>
      <trkpt lat="44.791987" lon="5.547511">
        <time>1970-01-01T00:00:00+00:00</time>
        <ele>1767.0</ele>
      </trkpt>
      <trkpt lat="44.791657" lon="5.548155">
        <time>1970-01-01T00:00:00+00:00</time>
        <ele>1767.0</ele>
      </trkpt>
      <trkpt lat="44.791765" lon="5.548632">
        <time>1970-01-01T00:00:00+00:00</time>
        <ele>1765.0</ele>
      </trkpt>
      <trkpt lat="44.791725" lon="5.549027">
        <time>1970-01-01T00:00:00+00:00</time>
        <ele>1763.0</ele>
      </trkpt>
      <trkpt lat="44.791767" lon="5.549302">
        <time>1970-01-01T00:00:00+00:00</time>
        <ele>1764.0</ele>
      </trkpt>
      <trkpt lat="44.791704" lon="5.549548">
        <time>1970-01-01T00:00:00+00:00</time>
        <ele>1761.0</ele>
      </trkpt>
      <trkpt lat="44.791777" lon="5.550205">
        <time>1970-01-01T00:00:00+00:00</time>
        <ele>1754.0</ele>
      </trkpt>
      <trkpt lat="44.791749" lon="5.550529">
        <time>1970-01-01T00:00:00+00:00</time>
        <ele>1750.0</ele>
      </trkpt>
      <trkpt lat="44.791694" lon="5.55066">
        <time>1970-01-01T00:00:00+00:00</time>
        <ele>1747.0</ele>
      </trkpt>
      <trkpt lat="44.791564" lon="5.55075">
        <time>1970-01-01T00:00:00+00:00</time>
        <ele>1744.0</ele>
      </trkpt>
      <trkpt lat="44.791682" lon="5.551163">
        <time>1970-01-01T00:00:00+00:00</time>
        <ele>1738.0</ele>
      </trkpt>
      <trkpt lat="44.791695" lon="5.551398">
        <time>1970-01-01T00:00:00+00:00</time>
        <ele>1735.0</ele>
      </trkpt>
      <trkpt lat="44.79157" lon="5.551851">
        <time>1970-01-01T00:00:00+00:00</time>
        <ele>1727.0</ele>
      </trkpt>
      <trkpt lat="44.791516" lon="5.551954">
        <time>1970-01-01T00:00:00+00:00</time>
        <ele>1725.0</ele>
      </trkpt>
      <trkpt lat="44.79119" lon="5.552063">
        <time>1970-01-01T00:00:00+00:00</time>
        <ele>1721.0</ele>
      </trkpt>
      <trkpt lat="44.791095" lon="5.552198">
        <time>1970-01-01T00:00:00+00:00</time>
        <ele>1720.0</ele>
      </trkpt>
      <trkpt lat="44.790594" lon="5.552566">
        <time>1970-01-01T00:00:00+00:00</time>
        <ele>1711.0</ele>
      </trkpt>
      <trkpt lat="44.790289" lon="5.552976">
        <time>1970-01-01T00:00:00+00:00</time>
        <ele>1704.0</ele>
      </trkpt>
      <trkpt lat="44.789963" lon="5.553661">
        <time>1970-01-01T00:00:00+00:00</time>
        <ele>1696.0</ele>
      </trkpt>
      <trkpt lat="44.789643" lon="5.553947">
        <time>1970-01-01T00:00:00+00:00</time>
        <ele>1689.0</ele>
      </trkpt>
      <trkpt lat="44.789546" lon="5.554733">
        <time>1970-01-01T00:00:00+00:00</time>
        <ele>1682.0</ele>
      </trkpt>
      <trkpt lat="44.789457" lon="5.555006">
        <time>1970-01-01T00:00:00+00:00</time>
        <ele>1679.0</ele>
      </trkpt>
      <trkpt lat="44.789454" lon="5.555305">
        <time>1970-01-01T00:00:00+00:00</time>
        <ele>1678.0</ele>
      </trkpt>
      <trkpt lat="44.788541" lon="5.555998">
        <time>1970-01-01T00:00:00+00:00</time>
        <ele>1669.0</ele>
      </trkpt>
      <trkpt lat="44.788232" lon="5.556374">
        <time>1970-01-01T00:00:00+00:00</time>
        <ele>1664.0</ele>
      </trkpt>
      <trkpt lat="44.787762" lon="5.557292">
        <time>1970-01-01T00:00:00+00:00</time>
        <ele>1659.0</ele>
      </trkpt>
      <trkpt lat="44.787676" lon="5.55767">
        <time>1970-01-01T00:00:00+00:00</time>
        <ele>1657.0</ele>
      </trkpt>
      <trkpt lat="44.78768" lon="5.557983">
        <time>1970-01-01T00:00:00+00:00</time>
        <ele>1656.0</ele>
      </trkpt>
      <trkpt lat="44.788401" lon="5.557794">
        <time>1970-01-01T00:00:00+00:00</time>
        <ele>1658.0</ele>
      </trkpt>
      <trkpt lat="44.788876" lon="5.557911">
        <time>1970-01-01T00:00:00+00:00</time>
        <ele>1660.0</ele>
      </trkpt>
      <trkpt lat="44.78929" lon="5.557908">
        <time>1970-01-01T00:00:00+00:00</time>
        <ele>1663.0</ele>
      </trkpt>
      <trkpt lat="44.790116" lon="5.557719">
        <time>1970-01-01T00:00:00+00:00</time>
        <ele>1665.0</ele>
      </trkpt>
      <trkpt lat="44.790785" lon="5.557718">
        <time>1970-01-01T00:00:00+00:00</time>
        <ele>1662.0</ele>
      </trkpt>
      <trkpt lat="44.790982" lon="5.557584">
        <time>1970-01-01T00:00:00+00:00</time>
        <ele>1663.0</ele>
      </trkpt>
      <trkpt lat="44.791405" lon="5.55745">
        <time>1970-01-01T00:00:00+00:00</time>
        <ele>1663.0</ele>
      </trkpt>
      <trkpt lat="44.791749" lon="5.557719">
        <time>1970-01-01T00:00:00+00:00</time>
        <ele>1665.0</ele>
      </trkpt>
      <trkpt lat="44.792252" lon="5.557877">
        <time>1970-01-01T00:00:00+00:00</time>
        <ele>1666.0</ele>
      </trkpt>
      <trkpt lat="44.792455" lon="5.558045">
        <time>1970-01-01T00:00:00+00:00</time>
        <ele>1667.0</ele>
      </trkpt>
      <trkpt lat="44.792616" lon="5.558357">
        <time>1970-01-01T00:00:00+00:00</time>
        <ele>1668.0</ele>
      </trkpt>
      <trkpt lat="44.792676" lon="5.558687">
        <time>1970-01-01T00:00:00+00:00</time>
        <ele>1662.0</ele>
      </trkpt>
      <trkpt lat="44.792776" lon="5.558731">
        <time>1970-01-01T00:00:00+00:00</time>
        <ele>1657.0</ele>
      </trkpt>
      <trkpt lat="44.792762" lon="5.558834">
        <time>1970-01-01T00:00:00+00:00</time>
        <ele>1654.0</ele>
      </trkpt>
      <trkpt lat="44.792973" lon="5.558831">
        <time>1970-01-01T00:00:00+00:00</time>
        <ele>1648.0</ele>
      </trkpt>
      <trkpt lat="44.792822" lon="5.559069">
        <time>1970-01-01T00:00:00+00:00</time>
        <ele>1645.0</ele>
      </trkpt>
      <trkpt lat="44.793087" lon="5.559047">
        <time>1970-01-01T00:00:00+00:00</time>
        <ele>1638.0</ele>
      </trkpt>
      <trkpt lat="44.79327" lon="5.559122">
        <time>1970-01-01T00:00:00+00:00</time>
        <ele>1635.0</ele>
      </trkpt>
      <trkpt lat="44.793315" lon="5.559239">
        <time>1970-01-01T00:00:00+00:00</time>
        <ele>1631.0</ele>
      </trkpt>
      <trkpt lat="44.793288" lon="5.559494">
        <time>1970-01-01T00:00:00+00:00</time>
        <ele>1621.0</ele>
      </trkpt>
      <trkpt lat="44.79347" lon="5.559524">
        <time>1970-01-01T00:00:00+00:00</time>
        <ele>1622.0</ele>
      </trkpt>
      <trkpt lat="44.793879" lon="5.559239">
        <time>1970-01-01T00:00:00+00:00</time>
        <ele>1620.0</ele>
      </trkpt>
      <trkpt lat="44.793926" lon="5.559246">
        <time>1970-01-01T00:00:00+00:00</time>
        <ele>1618.0</ele>
      </trkpt>
      <trkpt lat="44.793907" lon="5.559334">
        <time>1970-01-01T00:00:00+00:00</time>
        <ele>1617.0</ele>
      </trkpt>
      <trkpt lat="44.794331" lon="5.559371">
        <time>1970-01-01T00:00:00+00:00</time>
        <ele>1601.0</ele>
      </trkpt>
      <trkpt lat="44.79421" lon="5.559545">
        <time>1970-01-01T00:00:00+00:00</time>
        <ele>1598.0</ele>
      </trkpt>
      <trkpt lat="44.794345" lon="5.559575">
        <time>1970-01-01T00:00:00+00:00</time>
        <ele>1593.0</ele>
      </trkpt>
      <trkpt lat="44.794311" lon="5.559713">
        <time>1970-01-01T00:00:00+00:00</time>
        <ele>1588.0</ele>
      </trkpt>
      <trkpt lat="44.794388" lon="5.559882">
        <time>1970-01-01T00:00:00+00:00</time>
        <ele>1577.0</ele>
      </trkpt>
      <trkpt lat="44.794559" lon="5.559971">
        <time>1970-01-01T00:00:00+00:00</time>
        <ele>1569.0</ele>
      </trkpt>
      <trkpt lat="44.794398" lon="5.560043">
        <time>1970-01-01T00:00:00+00:00</time>
        <ele>1569.0</ele>
      </trkpt>
      <trkpt lat="44.794333" lon="5.560306">
        <time>1970-01-01T00:00:00+00:00</time>
        <ele>1557.0</ele>
      </trkpt>
      <trkpt lat="44.794396" lon="5.560394">
        <time>1970-01-01T00:00:00+00:00</time>
        <ele>1550.0</ele>
      </trkpt>
      <trkpt lat="44.794498" lon="5.560343">
        <time>1970-01-01T00:00:00+00:00</time>
        <ele>1551.0</ele>
      </trkpt>
      <trkpt lat="44.794606" lon="5.560435">
        <time>1970-01-01T00:00:00+00:00</time>
        <ele>1544.0</ele>
      </trkpt>
      <trkpt lat="44.794518" lon="5.560521">
        <time>1970-01-01T00:00:00+00:00</time>
        <ele>1542.0</ele>
      </trkpt>
      <trkpt lat="44.79446" lon="5.561024">
        <time>1970-01-01T00:00:00+00:00</time>
        <ele>1522.0</ele>
      </trkpt>
      <trkpt lat="44.794499" lon="5.561156">
        <time>1970-01-01T00:00:00+00:00</time>
        <ele>1515.0</ele>
      </trkpt>
      <trkpt lat="44.794405" lon="5.561711">
        <time>1970-01-01T00:00:00+00:00</time>
        <ele>1494.0</ele>
      </trkpt>
      <trkpt lat="44.79452" lon="5.561726">
        <time>1970-01-01T00:00:00+00:00</time>
        <ele>1490.0</ele>
      </trkpt>
      <trkpt lat="44.794701" lon="5.561382">
        <time>1970-01-01T00:00:00+00:00</time>
        <ele>1500.0</ele>
      </trkpt>
      <trkpt lat="44.795012" lon="5.561626">
        <time>1970-01-01T00:00:00+00:00</time>
        <ele>1485.0</ele>
      </trkpt>
      <trkpt lat="44.795307" lon="5.562009">
        <time>1970-01-01T00:00:00+00:00</time>
        <ele>1472.0</ele>
      </trkpt>
      <trkpt lat="44.79518" lon="5.562213">
        <time>1970-01-01T00:00:00+00:00</time>
        <ele>1460.0</ele>
      </trkpt>
      <trkpt lat="44.795308" lon="5.562299">
        <time>1970-01-01T00:00:00+00:00</time>
        <ele>1455.0</ele>
      </trkpt>
      <trkpt lat="44.795205" lon="5.562414">
        <time>1970-01-01T00:00:00+00:00</time>
        <ele>1448.0</ele>
      </trkpt>
      <trkpt lat="44.795305" lon="5.562506">
        <time>1970-01-01T00:00:00+00:00</time>
        <ele>1442.0</ele>
      </trkpt>
      <trkpt lat="44.79524" lon="5.562616">
        <time>1970-01-01T00:00:00+00:00</time>
        <ele>1436.0</ele>
      </trkpt>
      <trkpt lat="44.795428" lon="5.562863">
        <time>1970-01-01T00:00:00+00:00</time>
        <ele>1422.0</ele>
      </trkpt>
      <trkpt lat="44.796147" lon="5.5633">
        <time>1970-01-01T00:00:00+00:00</time>
        <ele>1389.0</ele>
      </trkpt>
      <trkpt lat="44.79554" lon="5.563897">
        <time>1970-01-01T00:00:00+00:00</time>
        <ele>1372.0</ele>
      </trkpt>
      <trkpt lat="44.795476" lon="5.56492">
        <time>1970-01-01T00:00:00+00:00</time>
        <ele>1339.0</ele>
      </trkpt>
      <trkpt lat="44.79528" lon="5.566543">
        <time>1970-01-01T00:00:00+00:00</time>
        <ele>1295.0</ele>
      </trkpt>
      <trkpt lat="44.795376" lon="5.5668">
        <time>1970-01-01T00:00:00+00:00</time>
        <ele>1290.0</ele>
      </trkpt>
      <trkpt lat="44.795238" lon="5.567413">
        <time>1970-01-01T00:00:00+00:00</time>
        <ele>1273.0</ele>
      </trkpt>
      <trkpt lat="44.795281" lon="5.567502">
        <time>1970-01-01T00:00:00+00:00</time>
        <ele>1272.0</ele>
      </trkpt>
      <trkpt lat="44.795973" lon="5.567318">
        <time>1970-01-01T00:00:00+00:00</time>
        <ele>1267.0</ele>
      </trkpt>
      <trkpt lat="44.797118" lon="5.567623">
        <time>1970-01-01T00:00:00+00:00</time>
        <ele>1247.0</ele>
      </trkpt>
      <trkpt lat="44.797451" lon="5.5678">
        <time>1970-01-01T00:00:00+00:00</time>
        <ele>1242.0</ele>
      </trkpt>
      <trkpt lat="44.797553" lon="5.568122">
        <time>1970-01-01T00:00:00+00:00</time>
        <ele>1242.0</ele>
      </trkpt>
      <trkpt lat="44.797564" lon="5.568716">
        <time>1970-01-01T00:00:00+00:00</time>
        <ele>1242.0</ele>
      </trkpt>
      <trkpt lat="44.797931" lon="5.569606">
        <time>1970-01-01T00:00:00+00:00</time>
        <ele>1225.0</ele>
      </trkpt>
      <trkpt lat="44.79791" lon="5.570355">
        <time>1970-01-01T00:00:00+00:00</time>
        <ele>1209.0</ele>
      </trkpt>
      <trkpt lat="44.798217" lon="5.570412">
        <time>1970-01-01T00:00:00+00:00</time>
        <ele>1208.0</ele>
      </trkpt>
      <trkpt lat="44.798013" lon="5.570677">
        <time>1970-01-01T00:00:00+00:00</time>
        <ele>1203.0</ele>
      </trkpt>
      <trkpt lat="44.79832" lon="5.570773">
        <time>1970-01-01T00:00:00+00:00</time>
        <ele>1200.0</ele>
      </trkpt>
      <trkpt lat="44.798226" lon="5.571084">
        <time>1970-01-01T00:00:00+00:00</time>
        <ele>1192.0</ele>
      </trkpt>
      <trkpt lat="44.798247" lon="5.571362">
        <time>1970-01-01T00:00:00+00:00</time>
        <ele>1184.0</ele>
      </trkpt>
      <trkpt lat="44.798861" lon="5.572425">
        <time>1970-01-01T00:00:00+00:00</time>
        <ele>1150.0</ele>
      </trkpt>
      <trkpt lat="44.799172" lon="5.573352">
        <time>1970-01-01T00:00:00+00:00</time>
        <ele>1129.0</ele>
      </trkpt>
      <trkpt lat="44.799392" lon="5.573779">
        <time>1970-01-01T00:00:00+00:00</time>
        <ele>1118.0</ele>
      </trkpt>
      <trkpt lat="44.79956" lon="5.573706">
        <time>1970-01-01T00:00:00+00:00</time>
        <ele>1119.0</ele>
      </trkpt>
      <trkpt lat="44.800211" lon="5.573074">
        <time>1970-01-01T00:00:00+00:00</time>
        <ele>1115.0</ele>
      </trkpt>
      <trkpt lat="44.80053" lon="5.572472">
        <time>1970-01-01T00:00:00+00:00</time>
        <ele>1114.0</ele>
      </trkpt>
      <trkpt lat="44.800718" lon="5.572449">
        <time>1970-01-01T00:00:00+00:00</time>
        <ele>1111.0</ele>
      </trkpt>
      <trkpt lat="44.800943" lon="5.572258">
        <time>1970-01-01T00:00:00+00:00</time>
        <ele>1110.0</ele>
      </trkpt>
      <trkpt lat="44.801325" lon="5.572108">
        <time>1970-01-01T00:00:00+00:00</time>
        <ele>1108.0</ele>
      </trkpt>
      <trkpt lat="44.801398" lon="5.572135">
        <time>1970-01-01T00:00:00+00:00</time>
        <ele>1108.0</ele>
      </trkpt>
      <trkpt lat="44.801423" lon="5.572365">
        <time>1970-01-01T00:00:00+00:00</time>
        <ele>1105.0</ele>
      </trkpt>
      <trkpt lat="44.801237" lon="5.573299">
        <time>1970-01-01T00:00:00+00:00</time>
        <ele>1099.0</ele>
      </trkpt>
      <trkpt lat="44.801413" lon="5.573373">
        <time>1970-01-01T00:00:00+00:00</time>
        <ele>1097.0</ele>
      </trkpt>
      <trkpt lat="44.801713" lon="5.573305">
        <time>1970-01-01T00:00:00+00:00</time>
        <ele>1095.0</ele>
      </trkpt>
      <trkpt lat="44.802163" lon="5.573392">
        <time>1970-01-01T00:00:00+00:00</time>
        <ele>1092.0</ele>
      </trkpt>
      <trkpt lat="44.803176" lon="5.573269">
        <time>1970-01-01T00:00:00+00:00</time>
        <ele>1088.0</ele>
      </trkpt>
      <trkpt lat="44.803757" lon="5.572976">
        <time>1970-01-01T00:00:00+00:00</time>
        <ele>1088.0</ele>
      </trkpt>
      <trkpt lat="44.805457" lon="5.572411">
        <time>1970-01-01T00:00:00+00:00</time>
        <ele>1077.0</ele>
      </trkpt>
      <trkpt lat="44.806631" lon="5.574212">
        <time>1970-01-01T00:00:00+00:00</time>
        <ele>1053.0</ele>
      </trkpt>
      <trkpt lat="44.807287" lon="5.574754">
        <time>1970-01-01T00:00:00+00:00</time>
        <ele>1042.0</ele>
      </trkpt>
      <trkpt lat="44.807666" lon="5.575181">
        <time>1970-01-01T00:00:00+00:00</time>
        <ele>1035.0</ele>
      </trkpt>
      <trkpt lat="44.808019" lon="5.575808">
        <time>1970-01-01T00:00:00+00:00</time>
        <ele>1028.0</ele>
      </trkpt>
      <trkpt lat="44.808691" lon="5.576519">
        <time>1970-01-01T00:00:00+00:00</time>
        <ele>1019.0</ele>
      </trkpt>
      <trkpt lat="44.809081" lon="5.576677">
        <time>1970-01-01T00:00:00+00:00</time>
        <ele>1014.0</ele>
      </trkpt>
      <trkpt lat="44.809429" lon="5.577061">
        <time>1970-01-01T00:00:00+00:00</time>
        <ele>1008.0</ele>
      </trkpt>
      <trkpt lat="44.809736" lon="5.57722">
        <time>1970-01-01T00:00:00+00:00</time>
        <ele>1004.0</ele>
      </trkpt>
      <trkpt lat="44.810044" lon="5.576928">
        <time>1970-01-01T00:00:00+00:00</time>
        <ele>1002.0</ele>
      </trkpt>
      <trkpt lat="44.810255" lon="5.576625">
        <time>1970-01-01T00:00:00+00:00</time>
        <ele>1000.0</ele>
      </trkpt>
      <trkpt lat="44.810577" lon="5.575733">
        <time>1970-01-01T00:00:00+00:00</time>
        <ele>997.0</ele>
      </trkpt>
      <trkpt lat="44.810628" lon="5.574042">
        <time>1970-01-01T00:00:00+00:00</time>
        <ele>986.0</ele>
      </trkpt>
      <trkpt lat="44.810959" lon="5.573305">
        <time>1970-01-01T00:00:00+00:00</time>
        <ele>982.0</ele>
      </trkpt>
      <trkpt lat="44.811192" lon="5.572621">
        <time>1970-01-01T00:00:00+00:00</time>
        <ele>985.0</ele>
      </trkpt>
      <trkpt lat="44.812114" lon="5.572856">
        <time>1970-01-01T00:00:00+00:00</time>
        <ele>986.0</ele>
      </trkpt>
      <trkpt lat="44.813288" lon="5.572726">
        <time>1970-01-01T00:00:00+00:00</time>
        <ele>990.0</ele>
      </trkpt>
      <trkpt lat="44.81511" lon="5.572316">
        <time>1970-01-01T00:00:00+00:00</time>
        <ele>989.0</ele>
      </trkpt>
      <trkpt lat="44.815256" lon="5.572533">
        <time>1970-01-01T00:00:00+00:00</time>
        <ele>988.0</ele>
      </trkpt>
      <trkpt lat="44.81559" lon="5.57261">
        <time>1970-01-01T00:00:00+00:00</time>
        <ele>988.0</ele>
      </trkpt>
      <trkpt lat="44.816061" lon="5.573001">
        <time>1970-01-01T00:00:00+00:00</time>
        <ele>995.0</ele>
      </trkpt>
      <trkpt lat="44.816947" lon="5.572838">
        <time>1970-01-01T00:00:00+00:00</time>
        <ele>1001.0</ele>
      </trkpt>
      <trkpt lat="44.817359" lon="5.572851">
        <time>1970-01-01T00:00:00+00:00</time>
        <ele>999.0</ele>
      </trkpt>
      <trkpt lat="44.818272" lon="5.573196">
        <time>1970-01-01T00:00:00+00:00</time>
        <ele>998.0</ele>
      </trkpt>
      <trkpt lat="44.818974" lon="5.573285">
        <time>1970-01-01T00:00:00+00:00</time>
        <ele>1009.0</ele>
      </trkpt>
      <trkpt lat="44.819088" lon="5.573379">
        <time>1970-01-01T00:00:00+00:00</time>
        <ele>1012.0</ele>
      </trkpt>
      <trkpt lat="44.819237" lon="5.573814">
        <time>1970-01-01T00:00:00+00:00</time>
        <ele>1014.0</ele>
      </trkpt>
      <trkpt lat="44.819328" lon="5.574317">
        <time>1970-01-01T00:00:00+00:00</time>
        <ele>1013.0</ele>
      </trkpt>
      <trkpt lat="44.819398" lon="5.575109">
        <time>1970-01-01T00:00:00+00:00</time>
        <ele>1012.0</ele>
      </trkpt>
      <trkpt lat="44.819962" lon="5.577267">
        <time>1970-01-01T00:00:00+00:00</time>
        <ele>975.0</ele>
      </trkpt>
      <trkpt lat="44.820009" lon="5.578126">
        <time>1970-01-01T00:00:00+00:00</time>
        <ele>965.0</ele>
      </trkpt>
      <trkpt lat="44.820334" lon="5.57931">
        <time>1970-01-01T00:00:00+00:00</time>
        <ele>947.0</ele>
      </trkpt>
      <trkpt lat="44.820379" lon="5.579688">
        <time>1970-01-01T00:00:00+00:00</time>
        <ele>944.0</ele>
      </trkpt>
      <trkpt lat="44.820338" lon="5.580144">
        <time>1970-01-01T00:00:00+00:00</time>
        <ele>943.0</ele>
      </trkpt>
      <trkpt lat="44.820379" lon="5.580969">
        <time>1970-01-01T00:00:00+00:00</time>
        <ele>937.0</ele>
      </trkpt>
      <trkpt lat="44.820667" lon="5.581173">
        <time>1970-01-01T00:00:00+00:00</time>
        <ele>927.0</ele>
      </trkpt>
      <trkpt lat="44.82086" lon="5.581434">
        <time>1970-01-01T00:00:00+00:00</time>
        <ele>921.0</ele>
      </trkpt>
      <trkpt lat="44.820764" lon="5.58178">
        <time>1970-01-01T00:00:00+00:00</time>
        <ele>921.0</ele>
      </trkpt>
      <trkpt lat="44.821952" lon="5.582373">
        <time>1970-01-01T00:00:00+00:00</time>
        <ele>914.0</ele>
      </trkpt>
      <trkpt lat="44.822414" lon="5.583034">
        <time>1970-01-01T00:00:00+00:00</time>
        <ele>920.0</ele>
      </trkpt>
      <trkpt lat="44.822946" lon="5.58336">
        <time>1970-01-01T00:00:00+00:00</time>
        <ele>910.0</ele>
      </trkpt>
      <trkpt lat="44.823091" lon="5.583533">
        <time>1970-01-01T00:00:00+00:00</time>
        <ele>910.0</ele>
      </trkpt>
      <trkpt lat="44.823481" lon="5.584323">
        <time>1970-01-01T00:00:00+00:00</time>
        <ele>912.0</ele>
      </trkpt>
      <trkpt lat="44.823861" lon="5.585375">
        <time>1970-01-01T00:00:00+00:00</time>
        <ele>907.0</ele>
      </trkpt>
      <trkpt lat="44.824147" lon="5.586275">
        <time>1970-01-01T00:00:00+00:00</time>
        <ele>901.0</ele>
      </trkpt>
      <trkpt lat="44.824495" lon="5.587787">
        <time>1970-01-01T00:00:00+00:00</time>
        <ele>912.0</ele>
      </trkpt>
      <trkpt lat="44.825027" lon="5.588246">
        <time>1970-01-01T00:00:00+00:00</time>
        <ele>899.0</ele>
      </trkpt>
      <trkpt lat="44.825258" lon="5.588133">
        <time>1970-01-01T00:00:00+00:00</time>
        <ele>886.0</ele>
      </trkpt>
      <trkpt lat="44.825562" lon="5.588126">
        <time>1970-01-01T00:00:00+00:00</time>
        <ele>874.0</ele>
      </trkpt>
      <trkpt lat="44.825753" lon="5.588212">
        <time>1970-01-01T00:00:00+00:00</time>
        <ele>867.0</ele>
      </trkpt>
      <trkpt lat="44.825989" lon="5.588529">
        <time>1970-01-01T00:00:00+00:00</time>
        <ele>863.0</ele>
      </trkpt>
      <trkpt lat="44.826742" lon="5.590459">
        <time>1970-01-01T00:00:00+00:00</time>
        <ele>871.0</ele>
      </trkpt>
      <trkpt lat="44.827189" lon="5.591344">
        <time>1970-01-01T00:00:00+00:00</time>
        <ele>864.0</ele>
      </trkpt>
      <trkpt lat="44.827466" lon="5.592536">
        <time>1970-01-01T00:00:00+00:00</time>
        <ele>872.0</ele>
      </trkpt>
      <trkpt lat="44.827571" lon="5.592682">
        <time>1970-01-01T00:00:00+00:00</time>
        <ele>872.0</ele>
      </trkpt>
      <trkpt lat="44.828231" lon="5.593201">
        <time>1970-01-01T00:00:00+00:00</time>
        <ele>867.0</ele>
      </trkpt>
      <trkpt lat="44.828782" lon="5.594245">
        <time>1970-01-01T00:00:00+00:00</time>
        <ele>864.0</ele>
      </trkpt>
      <trkpt lat="44.829133" lon="5.594987">
        <time>1970-01-01T00:00:00+00:00</time>
        <ele>862.0</ele>
      </trkpt>
      <trkpt lat="44.829209" lon="5.595793">
        <time>1970-01-01T00:00:00+00:00</time>
        <ele>863.0</ele>
      </trkpt>
      <trkpt lat="44.82952" lon="5.59623">
        <time>1970-01-01T00:00:00+00:00</time>
        <ele>862.0</ele>
      </trkpt>
      <trkpt lat="44.8298" lon="5.597018">
        <time>1970-01-01T00:00:00+00:00</time>
        <ele>861.0</ele>
      </trkpt>
      <trkpt lat="44.829778" lon="5.597388">
        <time>1970-01-01T00:00:00+00:00</time>
        <ele>862.0</ele>
      </trkpt>
      <trkpt lat="44.829394" lon="5.598607">
        <time>1970-01-01T00:00:00+00:00</time>
        <ele>857.0</ele>
      </trkpt>
      <trkpt lat="44.829381" lon="5.598914">
        <time>1970-01-01T00:00:00+00:00</time>
        <ele>856.0</ele>
      </trkpt>
      <trkpt lat="44.829513" lon="5.599273">
        <time>1970-01-01T00:00:00+00:00</time>
        <ele>855.0</ele>
      </trkpt>
      <trkpt lat="44.829508" lon="5.599384">
        <time>1970-01-01T00:00:00+00:00</time>
        <ele>855.0</ele>
      </trkpt>
      <trkpt lat="44.828954" lon="5.59979">
        <time>1970-01-01T00:00:00+00:00</time>
        <ele>858.0</ele>
      </trkpt>
      <trkpt lat="44.828735" lon="5.600674">
        <time>1970-01-01T00:00:00+00:00</time>
        <ele>857.0</ele>
      </trkpt>
      <trkpt lat="44.828112" lon="5.599563">
        <time>1970-01-01T00:00:00+00:00</time>
        <ele>866.0</ele>
      </trkpt>
      <trkpt lat="44.828164" lon="5.600342">
        <time>1970-01-01T00:00:00+00:00</time>
        <ele>863.0</ele>
      </trkpt>
      <trkpt lat="44.828077" lon="5.601441">
        <time>1970-01-01T00:00:00+00:00</time>
        <ele>857.0</ele>
      </trkpt>
      <trkpt lat="44.828088" lon="5.602073">
        <time>1970-01-01T00:00:00+00:00</time>
        <ele>853.0</ele>
      </trkpt>
      <trkpt lat="44.828008" lon="5.602584">
        <time>1970-01-01T00:00:00+00:00</time>
        <ele>848.0</ele>
      </trkpt>
      <trkpt lat="44.82801" lon="5.603087">
        <time>1970-01-01T00:00:00+00:00</time>
        <ele>838.0</ele>
      </trkpt>
      <trkpt lat="44.82814" lon="5.603584">
        <time>1970-01-01T00:00:00+00:00</time>
        <ele>836.0</ele>
      </trkpt>
      <trkpt lat="44.828106" lon="5.604845">
        <time>1970-01-01T00:00:00+00:00</time>
        <ele>832.0</ele>
      </trkpt>
      <trkpt lat="44.82773" lon="5.605017">
        <time>1970-01-01T00:00:00+00:00</time>
        <ele>830.0</ele>
      </trkpt>
      <trkpt lat="44.827467" lon="5.605286">
        <time>1970-01-01T00:00:00+00:00</time>
        <ele>830.0</ele>
      </trkpt>
      <trkpt lat="44.827304" lon="5.605287">
        <time>1970-01-01T00:00:00+00:00</time>
        <ele>830.0</ele>
      </trkpt>
      <trkpt lat="44.82726" lon="5.60502">
        <time>1970-01-01T00:00:00+00:00</time>
        <ele>830.0</ele>
      </trkpt>
    </trkseg>
  </trk>
</gpx>
